Location: Erba
(45.8000°N, 9.2500°E)
Time: 11:41:05
(UTC+02:00)

ISS - Pass Details

Date: 09 July 2020
Orbit: 417 x 420 km, 51.6° (Epoch: 02 July)

Event Time Altitude Azimuth Distance (km) Brightness Sun altitude
Rises 04:09:45 0° 286° (WNW) 2,361 -0.2 -12.7°
Reaches altitude 10° 04:12:01 10° 298° (WNW) 1,497 -1.1 -12.4°
Maximum altitude 04:15:00 29° 0° (N) 808 -1.7 -12.1°
Drops below altitude 10° 04:17:58 10° 63° (ENE) 1,496 0.2 -11.8°
Sets 04:20:15 0° 75° (ENE) 2,359 1.0 -11.5°
